Time,TemperatureF,DewpointF,PressureIn,WindDirection,WindDirectionDegrees,WindSpeedMPH,WindSpeedGustMPH,Humidity,HourlyPrecipIn,Conditions,Clouds,dailyrainin,SoftwareType,DateUTC
2013-06-11 00:00:00,62.7,61.8,29.73,NNE,32,2.0,4.0,97,0.02,,---,1.03,VWS V14.00,2013-06-11 04:00:00,
2013-06-11 00:01:00,62.7,61.8,29.73,NNE,18,2.0,4.0,97,0.02,,---,1.03,VWS V14.00,2013-06-11 04:01:00,
2013-06-11 00:03:00,62.7,61.8,29.73,NW,324,0.0,4.0,97,0.02,,---,1.03,VWS V14.00,2013-06-11 04:03:00,
2013-06-11 00:04:00,62.7,61.8,29.73,NW,326,1.0,1.0,97,0.02,,---,0.00,VWS V14.00,2013-06-11 04:04:00,
2013-06-11 00:09:00,62.8,61.9,29.72,ENE,61,0.0,1.0,97,0.02,,---,0.00,VWS V14.00,2013-06-11 04:09:00,
2013-06-11 00:14:00,62.8,61.9,29.72,NNW,348,1.0,3.0,97,0.02,,---,0.00,VWS V14.00,2013-06-11 04:14:00,
2013-06-11 00:19:00,62.8,61.9,29.72,NNE,32,1.0,4.0,97,0.02,,---,0.00,VWS V14.00,2013-06-11 04:19:00,
2013-06-11 00:25:00,62.8,61.9,29.72,NNE,17,0.0,2.0,97,0.02,,---,0.00,VWS V14.00,2013-06-11 04:25:00,
2013-06-11 00:30:00,62.9,62.0,29.72,NNE,30,2.0,3.0,97,0.03,,---,0.01,VWS V14.00,2013-06-11 04:30:00,
2013-06-11 00:35:00,63.0,62.1,29.71,NE,42,4.0,4.0,97,0.03,,---,0.01,VWS V14.00,2013-06-11 04:35:00,
2013-06-11 00:40:00,63.0,62.1,29.71,NE,55,2.0,4.0,97,0.04,,---,0.02,VWS V14.00,2013-06-11 04:40:00,
2013-06-11 00:45:00,62.9,62.0,29.71,NNE,22,2.0,2.0,97,0.04,,---,0.02,VWS V14.00,2013-06-11 04:45:00,
2013-06-11 00:50:00,62.9,62.0,29.71,NNW,343,1.0,3.0,97,0.03,,---,0.02,VWS V14.00,2013-06-11 04:50:00,
2013-06-11 00:55:00,62.8,61.9,29.70,North,352,2.0,4.0,97,0.02,,---,0.02,VWS V14.00,2013-06-11 04:55:00,
2013-06-11 01:00:00,62.8,61.9,29.70,NNE,33,3.0,4.0,97,0.02,,---,0.02,VWS V14.00,2013-06-11 05:00:00,
2013-06-11 01:05:00,62.8,61.9,29.70,WNW,291,1.0,2.0,97,0.02,,---,0.02,VWS V14.00,2013-06-11 05:05:00,
2013-06-11 01:10:00,62.8,61.9,29.70,NE,34,3.0,4.0,97,0.02,,---,0.02,VWS V14.00,2013-06-11 05:10:00,
2013-06-11 01:15:00,62.8,61.9,29.69,NNW,348,3.0,5.0,97,0.02,,---,0.02,VWS V14.00,2013-06-11 05:15:00,
2013-06-11 01:20:00,62.8,62.2,29.70,North,1,1.0,2.0,98,0.02,,---,0.02,VWS V14.00,2013-06-11 05:20:00,
2013-06-11 01:25:00,62.7,61.8,29.69,NNE,17,0.0,3.0,97,0.02,,---,0.02,VWS V14.00,2013-06-11 05:25:00,
2013-06-11 01:30:00,62.8,61.9,29.70,NNW,346,2.0,3.0,97,0.01,,---,0.02,VWS V14.00,2013-06-11 05:30:00,
2013-06-11 01:35:00,62.8,62.2,29.69,NNE,15,4.0,5.0,98,0.01,,---,0.02,VWS V14.00,2013-06-11 05:35:00,
2013-06-11 01:41:00,62.8,62.2,29.69,North,354,3.0,5.0,98,0.00,,---,0.02,VWS V14.00,2013-06-11 05:41:00,
2013-06-11 01:46:00,62.8,62.2,29.69,North,350,3.0,5.0,98,0.00,,---,0.02,VWS V14.00,2013-06-11 05:46:00,
2013-06-11 01:51:00,62.8,62.2,29.68,NNE,23,2.0,4.0,98,0.00,,---,0.02,VWS V14.00,2013-06-11 05:51:00,
2013-06-11 01:56:00,62.8,62.2,29.68,NNE,30,2.0,3.0,98,0.00,,---,0.02,VWS V14.00,2013-06-11 05:56:00,
2013-06-11 02:01:00,62.8,62.2,29.67,NNE,15,4.0,5.0,98,0.00,,---,0.02,VWS V14.00,2013-06-11 06:01:00,
2013-06-11 02:06:00,62.8,62.2,29.67,East,99,1.0,6.0,98,0.00,,---,0.02,VWS V14.00,2013-06-11 06:06:00,
2013-06-11 02:11:00,62.8,62.2,29.66,ENE,70,1.0,4.0,98,0.01,,---,0.03,VWS V14.00,2013-06-11 06:11:00,
2013-06-11 02:16:00,62.8,62.2,29.65,East,82,3.0,5.0,98,0.01,,---,0.03,VWS V14.00,2013-06-11 06:16:00,
2013-06-11 02:21:00,62.9,62.3,29.66,NE,53,1.0,4.0,98,0.01,,---,0.03,VWS V14.00,2013-06-11 06:21:00,
2013-06-11 02:26:00,63.0,62.4,29.65,NE,34,2.0,3.0,98,0.01,,---,0.03,VWS V14.00,2013-06-11 06:26:00,
2013-06-11 02:32:00,63.0,62.4,29.65,NE,55,2.0,2.0,98,0.01,,---,0.03,VWS V14.00,2013-06-11 06:32:00,
2013-06-11 02:37:00,63.0,62.4,29.65,NE,35,0.0,2.0,98,0.01,,---,0.03,VWS V14.00,2013-06-11 06:37:00,
2013-06-11 02:42:00,63.1,62.5,29.65,ENE,76,0.0,4.0,98,0.01,,---,0.03,VWS V14.00,2013-06-11 06:42:00,
2013-06-11 02:47:00,63.1,62.5,29.65,ENE,60,0.0,0.0,98,0.01,,---,0.03,VWS V14.00,2013-06-11 06:47:00,
2013-06-11 02:52:00,63.1,62.5,29.65,NNW,328,1.0,3.0,98,0.01,,---,0.03,VWS V14.00,2013-06-11 06:52:00,
2013-06-11 02:57:00,63.2,62.6,29.64,ENE,67,0.0,4.0,98,0.01,,---,0.03,VWS V14.00,2013-06-11 06:57:00,
2013-06-11 03:02:00,63.2,62.6,29.65,NNW,342,3.0,4.0,98,0.01,,---,0.03,VWS V14.00,2013-06-11 07:02:00,
2013-06-11 03:07:00,63.3,62.7,29.64,NE,34,2.0,3.0,98,0.01,,---,0.03,VWS V14.00,2013-06-11 07:07:00,
2013-06-11 03:12:00,63.3,62.7,29.65,West,281,0.0,3.0,98,0.01,,---,0.04,VWS V14.00,2013-06-11 07:12:00,
2013-06-11 03:17:00,63.3,62.7,29.65,WNW,283,0.0,1.0,98,0.02,,---,0.05,VWS V14.00,2013-06-11 07:17:00,
2013-06-11 03:22:00,63.3,62.7,29.64,East,82,0.0,1.0,98,0.02,,---,0.05,VWS V14.00,2013-06-11 07:22:00,
2013-06-11 03:27:00,63.4,62.8,29.64,East,85,0.0,0.0,98,0.02,,---,0.05,VWS V14.00,2013-06-11 07:27:00,
2013-06-11 03:32:00,63.4,62.8,29.64,ENE,57,0.0,0.0,98,0.02,,---,0.05,VWS V14.00,2013-06-11 07:32:00,
2013-06-11 03:37:00,63.4,62.8,29.64,NE,36,0.0,0.0,98,0.03,,---,0.06,VWS V14.00,2013-06-11 07:37:00,
2013-06-11 03:42:00,63.5,62.9,29.64,NNE,33,2.0,3.0,98,0.04,,---,0.07,VWS V14.00,2013-06-11 07:42:00,
2013-06-11 03:47:00,63.5,62.9,29.64,WNW,302,3.0,3.0,98,0.04,,---,0.07,VWS V14.00,2013-06-11 07:47:00,
2013-06-11 03:52:00,63.5,62.9,29.64,NW,315,2.0,3.0,98,0.04,,---,0.07,VWS V14.00,2013-06-11 07:52:00,
2013-06-11 03:58:00,63.5,62.9,29.64,WSW,253,1.0,6.0,98,0.04,,---,0.07,VWS V14.00,2013-06-11 07:58:00,
2013-06-11 04:03:00,63.5,62.9,29.64,NNW,340,1.0,2.0,98,0.04,,---,0.07,VWS V14.00,2013-06-11 08:03:00,
2013-06-11 04:08:00,63.6,63.0,29.64,North,359,2.0,2.0,98,0.04,,---,0.07,VWS V14.00,2013-06-11 08:08:00,
2013-06-11 04:13:00,63.6,63.0,29.64,North,359,0.0,2.0,98,0.04,,---,0.07,VWS V14.00,2013-06-11 08:13:00,
2013-06-11 04:18:00,63.6,63.0,29.64,NE,39,0.0,1.0,98,0.03,,---,0.07,VWS V14.00,2013-06-11 08:18:00,
2013-06-11 04:23:00,63.7,63.1,29.63,NE,39,0.0,0.0,98,0.02,,---,0.07,VWS V14.00,2013-06-11 08:23:00,
2013-06-11 04:28:00,63.7,63.1,29.64,NE,40,0.0,0.0,98,0.02,,---,0.07,VWS V14.00,2013-06-11 08:28:00,
2013-06-11 04:33:00,63.7,63.1,29.64,NE,39,0.0,0.0,98,0.02,,---,0.07,VWS V14.00,2013-06-11 08:33:00,
2013-06-11 04:38:00,63.7,63.1,29.64,NE,41,0.0,0.0,98,0.02,,---,0.07,VWS V14.00,2013-06-11 08:38:00,
2013-06-11 04:43:00,63.7,63.1,29.64,NE,41,0.0,0.0,98,0.00,,---,0.07,VWS V14.00,2013-06-11 08:43:00,
2013-06-11 04:48:00,63.7,63.1,29.63,NE,41,0.0,0.0,98,0.00,,---,0.07,VWS V14.00,2013-06-11 08:48:00,
2013-06-11 04:53:00,63.7,63.1,29.63,NE,39,0.0,0.0,98,0.00,,---,0.07,VWS V14.00,2013-06-11 08:53:00,
2013-06-11 04:58:00,63.8,63.2,29.63,NE,39,0.0,0.0,98,0.00,,---,0.07,VWS V14.00,2013-06-11 08:58:00,
2013-06-11 05:03:00,63.9,63.3,29.64,NE,40,0.0,0.0,98,0.00,,---,0.07,VWS V14.00,2013-06-11 09:03:00,
2013-06-11 05:08:00,63.8,63.2,29.63,NE,39,0.0,0.0,98,0.00,,---,0.07,VWS V14.00,2013-06-11 09:08:00,
2013-06-11 05:14:00,63.8,63.2,29.63,NE,39,0.0,0.0,98,0.00,,---,0.07,VWS V14.00,2013-06-11 09:14:00,
2013-06-11 05:19:00,63.8,63.2,29.63,NE,39,0.0,0.0,98,0.00,,---,0.07,VWS V14.00,2013-06-11 09:19:00,
2013-06-11 05:24:00,63.9,63.3,29.63,NE,39,0.0,0.0,98,0.00,,---,0.07,VWS V14.00,2013-06-11 09:24:00,
2013-06-11 05:29:00,63.8,63.2,29.63,NW,309,0.0,0.0,98,0.00,,---,0.07,VWS V14.00,2013-06-11 09:29:00,
2013-06-11 05:34:00,63.8,63.2,29.64,NW,309,0.0,0.0,98,0.00,,---,0.07,VWS V14.00,2013-06-11 09:34:00,
2013-06-11 05:39:00,63.9,63.3,29.63,NW,309,0.0,0.0,98,0.00,,---,0.07,VWS V14.00,2013-06-11 09:39:00,
2013-06-11 05:44:00,63.9,63.3,29.63,North,358,2.0,2.0,98,0.00,,---,0.07,VWS V14.00,2013-06-11 09:44:00,
2013-06-11 05:49:00,63.9,63.3,29.63,NNE,24,1.0,1.0,98,0.00,,---,0.07,VWS V14.00,2013-06-11 09:49:00,
2013-06-11 05:54:00,63.9,63.3,29.64,NNE,23,1.0,1.0,98,0.00,,---,0.07,VWS V14.00,2013-06-11 09:54:00,
2013-06-11 05:59:00,64.0,63.4,29.64,NNE,16,0.0,0.0,98,0.00,,---,0.07,VWS V14.00,2013-06-11 09:59:00,
2013-06-11 06:04:00,64.0,63.4,29.64,North,352,0.0,0.0,98,0.00,,---,0.07,VWS V14.00,2013-06-11 10:04:00,
2013-06-11 06:09:00,64.0,63.4,29.64,North,352,0.0,0.0,98,0.00,,---,0.07,VWS V14.00,2013-06-11 10:09:00,
2013-06-11 06:14:00,64.1,63.5,29.64,NNE,13,0.0,0.0,98,0.00,,---,0.07,VWS V14.00,2013-06-11 10:14:00,
2013-06-11 06:19:00,64.1,63.5,29.64,NNE,15,0.0,0.0,98,0.00,,---,0.07,VWS V14.00,2013-06-11 10:19:00,
2013-06-11 06:24:00,64.2,63.6,29.64,NNE,15,0.0,0.0,98,0.00,,---,0.07,VWS V14.00,2013-06-11 10:24:00,
2013-06-11 06:30:00,64.3,63.7,29.64,NNE,15,0.0,0.0,98,0.00,,---,0.07,VWS V14.00,2013-06-11 10:30:00,
2013-06-11 06:35:00,64.4,63.8,29.64,NNE,15,0.0,0.0,98,0.00,,---,0.07,VWS V14.00,2013-06-11 10:35:00,
2013-06-11 06:40:00,64.5,63.9,29.64,NNE,15,0.0,0.0,98,0.00,,---,0.07,VWS V14.00,2013-06-11 10:40:00,
2013-06-11 06:45:00,64.7,64.1,29.63,NNE,15,0.0,0.0,98,0.00,,---,0.07,VWS V14.00,2013-06-11 10:45:00,
2013-06-11 06:50:00,64.8,64.2,29.64,NNE,15,0.0,0.0,98,0.00,,---,0.07,VWS V14.00,2013-06-11 10:50:00,
2013-06-11 06:55:00,64.9,64.3,29.64,NNW,342,2.0,2.0,98,0.00,,---,0.07,VWS V14.00,2013-06-11 10:55:00,
2013-06-11 07:00:00,65.1,64.5,29.64,NNW,338,1.0,3.0,98,0.00,,---,0.07,VWS V14.00,2013-06-11 11:00:00,
2013-06-11 07:05:00,65.3,64.7,29.64,NNE,12,0.0,0.0,98,0.00,,---,0.07,VWS V14.00,2013-06-11 11:05:00,
2013-06-11 07:10:00,65.7,65.1,29.64,North,11,0.0,0.0,98,0.00,,---,0.07,VWS V14.00,2013-06-11 11:10:00,
2013-06-11 07:16:00,65.7,65.1,29.64,NNE,16,0.0,0.0,98,0.00,,---,0.07,VWS V14.00,2013-06-11 11:16:00,
2013-06-11 07:21:00,65.9,65.3,29.64,NNE,16,0.0,0.0,98,0.00,,---,0.07,VWS V14.00,2013-06-11 11:21:00,
2013-06-11 07:26:00,66.3,65.7,29.64,NNE,17,0.0,0.0,98,0.00,,---,0.07,VWS V14.00,2013-06-11 11:26:00,
2013-06-11 07:32:00,67.1,66.5,29.64,NE,48,0.0,0.0,98,0.00,,---,0.07,VWS V14.00,2013-06-11 11:32:00,
2013-06-11 07:37:00,68.0,67.4,29.64,NE,48,0.0,0.0,98,0.00,,---,0.07,VWS V14.00,2013-06-11 11:37:00,
2013-06-11 07:42:00,69.0,68.4,29.64,NE,49,0.0,0.0,98,0.00,,---,0.07,VWS V14.00,2013-06-11 11:42:00,
2013-06-11 07:47:00,69.5,68.6,29.64,SW,215,0.0,0.0,97,0.00,,---,0.07,VWS V14.00,2013-06-11 11:47:00,
2013-06-11 07:52:00,69.8,68.6,29.64,West,259,0.0,1.0,96,0.00,,---,0.07,VWS V14.00,2013-06-11 11:52:00,
2013-06-11 07:57:00,70.2,69.0,29.64,WSW,240,0.0,0.0,96,0.00,,---,0.07,VWS V14.00,2013-06-11 11:57:00,
2013-06-11 08:02:00,70.4,68.9,29.64,WNW,301,0.0,0.0,95,0.00,,---,0.07,VWS V14.00,2013-06-11 12:02:00,
2013-06-11 08:07:00,71.0,69.8,29.64,SW,234,0.0,1.0,96,0.00,,---,0.07,VWS V14.00,2013-06-11 12:07:00,
2013-06-11 08:12:00,71.5,70.0,29.64,WNW,287,3.0,3.0,95,0.00,,---,0.07,VWS V14.00,2013-06-11 12:12:00,
2013-06-11 08:17:00,71.8,70.3,29.64,SW,222,3.0,3.0,95,0.00,,---,0.07,VWS V14.00,2013-06-11 12:17:00,
2013-06-11 08:23:00,72.2,70.1,29.64,SW,226,1.0,4.0,93,0.00,,---,0.07,VWS V14.00,2013-06-11 12:23:00,
2013-06-11 08:28:00,72.7,69.9,29.64,NW,304,1.0,5.0,91,0.00,,---,0.07,VWS V14.00,2013-06-11 12:28:00,
2013-06-11 08:33:00,73.1,70.6,29.64,SW,229,0.0,2.0,92,0.00,,---,0.07,VWS V14.00,2013-06-11 12:33:00,
2013-06-11 08:38:00,73.3,70.5,29.64,West,280,2.0,6.0,91,0.00,,---,0.07,VWS V14.00,2013-06-11 12:38:00,
2013-06-11 08:43:00,73.0,69.6,29.64,West,278,1.0,8.0,89,0.00,,---,0.07,VWS V14.00,2013-06-11 12:43:00,
2013-06-11 08:48:00,73.1,69.3,29.64,West,267,2.0,6.0,88,0.00,,---,0.07,VWS V14.00,2013-06-11 12:48:00,
2013-06-11 08:53:00,73.3,69.2,29.64,West,272,3.0,7.0,87,0.00,,---,0.07,VWS V14.00,2013-06-11 12:53:00,
2013-06-11 08:58:00,73.3,69.5,29.64,WNW,284,0.0,4.0,88,0.00,,---,0.07,VWS V14.00,2013-06-11 12:58:00,
2013-06-11 09:03:00,73.6,69.2,29.63,WSW,252,4.0,6.0,86,0.00,,---,0.07,VWS V14.00,2013-06-11 13:03:00,
2013-06-11 09:08:00,74.1,70.0,29.63,NNW,346,0.0,0.0,87,0.00,,---,0.07,VWS V14.00,2013-06-11 13:08:00,
2013-06-11 09:13:00,74.7,69.9,29.63,NW,310,3.0,4.0,85,0.00,,---,0.07,VWS V14.00,2013-06-11 13:13:00,
2013-06-11 09:18:00,74.6,69.1,29.63,WNW,290,2.0,2.0,83,0.00,,---,0.07,VWS V14.00,2013-06-11 13:18:00,
2013-06-11 09:23:00,74.9,69.7,29.63,WSW,242,5.0,5.0,84,0.00,,---,0.07,VWS V14.00,2013-06-11 13:23:00,
2013-06-11 09:29:00,76.1,70.9,29.63,West,271,2.0,2.0,84,0.00,,---,0.07,VWS V14.00,2013-06-11 13:29:00,
2013-06-11 09:34:00,76.1,68.8,29.63,NW,309,4.0,7.0,78,0.00,,---,0.07,VWS V14.00,2013-06-11 13:34:00,
2013-06-11 09:39:00,75.6,69.0,29.63,SW,215,4.0,4.0,80,0.00,,---,0.07,VWS V14.00,2013-06-11 13:39:00,
2013-06-11 09:44:00,75.7,69.5,29.63,SW,218,3.0,4.0,81,0.00,,---,0.07,VWS V14.00,2013-06-11 13:44:00,
2013-06-11 09:49:00,76.1,69.5,29.63,South,188,4.0,6.0,80,0.00,,---,0.07,VWS V14.00,2013-06-11 13:49:00,
2013-06-11 09:54:00,76.2,68.8,29.62,WNW,300,3.0,7.0,78,0.00,,---,0.07,VWS V14.00,2013-06-11 13:54:00,
2013-06-11 09:59:00,76.0,68.7,29.63,WSW,245,5.0,6.0,78,0.00,,---,0.07,VWS V14.00,2013-06-11 13:59:00,
2013-06-11 10:04:00,76.3,68.9,29.62,West,267,3.0,6.0,78,0.00,,---,0.07,VWS V14.00,2013-06-11 14:04:00,
2013-06-11 10:09:00,76.5,68.4,29.62,WSW,253,4.0,4.0,76,0.00,,---,0.07,VWS V14.00,2013-06-11 14:09:00,
2013-06-11 10:14:00,77.2,68.7,29.62,WNW,302,3.0,5.0,75,0.00,,---,0.07,VWS V14.00,2013-06-11 14:14:00,
2013-06-11 10:19:00,77.4,68.1,29.62,WSW,252,8.0,10.0,73,0.00,,---,0.07,VWS V14.00,2013-06-11 14:19:00,
2013-06-11 10:25:00,77.0,67.3,29.62,SSW,194,4.0,14.0,72,0.00,,---,0.07,VWS V14.00,2013-06-11 14:25:00,
2013-06-11 10:30:00,77.5,68.2,29.61,West,270,3.0,4.0,73,0.00,,---,0.07,VWS V14.00,2013-06-11 14:30:00,
2013-06-11 10:35:00,78.1,67.5,29.61,North,360,5.0,11.0,70,0.00,,---,0.07,VWS V14.00,2013-06-11 14:35:00,
2013-06-11 10:40:00,77.9,67.8,29.61,WNW,285,3.0,5.0,71,0.00,,---,0.07,VWS V14.00,2013-06-11 14:40:00,
2013-06-11 10:45:00,77.9,66.9,29.61,NW,309,3.0,12.0,69,0.00,,---,0.07,VWS V14.00,2013-06-11 14:45:00,
2013-06-11 10:50:00,78.0,67.0,29.61,West,267,6.0,11.0,69,0.00,,---,0.07,VWS V14.00,2013-06-11 14:50:00,
2013-06-11 10:55:00,78.6,67.2,29.61,West,267,4.0,10.0,68,0.00,,---,0.07,VWS V14.00,2013-06-11 14:55:00,
2013-06-11 11:00:00,78.9,67.4,29.61,NW,306,4.0,11.0,68,0.00,,---,0.07,VWS V14.00,2013-06-11 15:00:00,
2013-06-11 11:05:00,79.2,67.7,29.61,NW,304,6.0,6.0,68,0.00,,---,0.07,VWS V14.00,2013-06-11 15:05:00,
2013-06-11 11:10:00,78.8,66.9,29.61,SW,228,2.0,8.0,67,0.00,,---,0.07,VWS V14.00,2013-06-11 15:10:00,
2013-06-11 11:15:00,78.3,66.9,29.61,NNW,341,1.0,6.0,68,0.00,,---,0.07,VWS V14.00,2013-06-11 15:15:00,
2013-06-11 11:20:00,77.8,66.4,29.61,WNW,302,8.0,10.0,68,0.00,,---,0.07,VWS V14.00,2013-06-11 15:20:00,
2013-06-11 11:25:00,78.3,67.3,29.60,North,5,3.0,5.0,69,0.00,,---,0.07,VWS V14.00,2013-06-11 15:25:00,
2013-06-11 11:30:00,78.6,66.7,29.60,WSW,255,6.0,7.0,67,0.00,,---,0.07,VWS V14.00,2013-06-11 15:30:00,
2013-06-11 11:36:00,79.2,67.7,29.60,NW,314,3.0,5.0,68,0.00,,---,0.07,VWS V14.00,2013-06-11 15:36:00,
2013-06-11 11:41:00,80.0,66.7,29.60,West,260,6.0,12.0,64,0.00,,---,0.07,VWS V14.00,2013-06-11 15:41:00,
2013-06-11 11:45:00,79.3,66.1,29.60,WSW,239,3.0,14.0,64,0.00,,---,0.07,VWS V14.00,2013-06-11 15:45:00,
2013-06-11 11:51:00,79.1,66.3,29.60,WNW,290,5.0,9.0,65,0.00,,---,0.07,VWS V14.00,2013-06-11 15:51:00,
2013-06-11 11:56:00,78.9,66.2,29.60,West,281,4.0,12.0,65,0.00,,---,0.07,VWS V14.00,2013-06-11 15:56:00,
2013-06-11 12:01:00,79.8,66.6,29.60,WNW,284,3.0,8.0,64,0.00,,---,0.07,VWS V14.00,2013-06-11 16:01:00,
2013-06-11 12:06:00,79.7,66.0,29.60,WSW,255,5.0,11.0,63,0.00,,---,0.07,VWS V14.00,2013-06-11 16:06:00,
2013-06-11 12:11:00,80.0,66.7,29.60,WSW,252,4.0,5.0,64,0.00,,---,0.07,VWS V14.00,2013-06-11 16:11:00,
2013-06-11 12:16:00,80.5,66.8,29.59,WNW,295,3.0,8.0,63,0.00,,---,0.07,VWS V14.00,2013-06-11 16:16:00,
2013-06-11 12:21:00,80.6,67.3,29.59,NW,320,3.0,12.0,64,0.00,,---,0.07,VWS V14.00,2013-06-11 16:21:00,
2013-06-11 12:26:00,80.2,66.5,29.59,NW,309,4.0,11.0,63,0.00,,---,0.07,VWS V14.00,2013-06-11 16:26:00,
2013-06-11 12:31:00,80.3,66.6,29.59,SW,229,3.0,12.0,63,0.00,,---,0.07,VWS V14.00,2013-06-11 16:31:00,
2013-06-11 12:36:00,80.2,66.5,29.59,SW,233,4.0,15.0,63,0.00,,---,0.07,VWS V14.00,2013-06-11 16:36:00,
2013-06-11 12:42:00,79.6,66.4,29.59,SSE,167,4.0,10.0,64,0.00,,---,0.07,VWS V14.00,2013-06-11 16:42:00,
2013-06-11 12:47:00,79.9,67.5,29.58,NW,313,1.0,11.0,66,0.00,,---,0.07,VWS V14.00,2013-06-11 16:47:00,
2013-06-11 12:52:00,80.9,67.1,29.58,WNW,299,3.0,9.0,63,0.00,,---,0.07,VWS V14.00,2013-06-11 16:52:00,
2013-06-11 12:57:00,80.7,66.5,29.58,WNW,291,1.0,5.0,62,0.00,,---,0.07,VWS V14.00,2013-06-11 16:57:00,
2013-06-11 13:02:00,81.2,66.5,29.57,West,261,8.0,14.0,61,0.00,,---,0.07,VWS V14.00,2013-06-11 17:02:00,
2013-06-11 13:07:00,81.4,66.2,29.57,WSW,257,6.0,12.0,60,0.00,,---,0.07,VWS V14.00,2013-06-11 17:07:00,
2013-06-11 13:12:00,81.5,66.8,29.57,WNW,285,1.0,17.0,61,0.00,,---,0.07,VWS V14.00,2013-06-11 17:12:00,
2013-06-11 13:17:00,81.7,65.5,29.57,SW,224,5.0,14.0,58,0.00,,---,0.07,VWS V14.00,2013-06-11 17:17:00,
2013-06-11 13:22:00,82.0,65.8,29.57,WNW,297,2.0,9.0,58,0.00,,---,0.07,VWS V14.00,2013-06-11 17:22:00,
2013-06-11 13:27:00,81.7,66.0,29.57,NW,305,6.0,11.0,59,0.00,,---,0.07,VWS V14.00,2013-06-11 17:27:00,
2013-06-11 13:32:00,81.1,65.4,29.56,SW,217,5.0,12.0,59,0.00,,---,0.07,VWS V14.00,2013-06-11 17:32:00,
2013-06-11 13:38:00,80.7,65.5,29.56,West,264,5.0,14.0,60,0.00,,---,0.07,VWS V14.00,2013-06-11 17:38:00,
2013-06-11 13:43:00,80.4,65.7,29.56,West,267,3.0,14.0,61,0.00,,---,0.07,VWS V14.00,2013-06-11 17:43:00,
2013-06-11 13:48:00,80.9,66.2,29.56,SW,231,4.0,11.0,61,0.00,,---,0.07,VWS V14.00,2013-06-11 17:48:00,
2013-06-11 13:53:00,81.2,66.0,29.56,SSW,206,4.0,8.0,60,0.00,,---,0.07,VWS V14.00,2013-06-11 17:53:00,
2013-06-11 13:58:00,80.8,66.1,29.55,NW,309,4.0,13.0,61,0.00,,---,0.07,VWS V14.00,2013-06-11 17:58:00,
2013-06-11 14:03:00,80.3,66.6,29.56,SW,215,2.0,11.0,63,0.00,,---,0.07,VWS V14.00,2013-06-11 18:03:00,
2013-06-11 14:08:00,78.5,67.5,29.56,WSW,248,4.0,13.0,69,0.00,,---,0.07,VWS V14.00,2013-06-11 18:08:00,
2013-06-11 14:13:00,76.8,67.9,29.56,NNW,339,0.0,1.0,74,0.00,,---,0.07,VWS V14.00,2013-06-11 18:13:00,
2013-06-11 14:18:00,76.3,67.4,29.56,West,270,2.0,8.0,74,0.00,,---,0.07,VWS V14.00,2013-06-11 18:18:00,
2013-06-11 14:23:00,76.4,67.9,29.55,SSW,192,1.0,7.0,75,0.00,,---,0.07,VWS V14.00,2013-06-11 18:23:00,
2013-06-11 14:28:00,76.7,67.0,29.55,WNW,296,4.0,9.0,72,0.00,,---,0.07,VWS V14.00,2013-06-11 18:28:00,
2013-06-11 14:33:00,76.9,67.6,29.55,SW,221,3.0,12.0,73,0.00,,---,0.07,VWS V14.00,2013-06-11 18:33:00,
2013-06-11 14:38:00,76.9,67.2,29.55,WSW,246,7.0,10.0,72,0.00,,---,0.07,VWS V14.00,2013-06-11 18:38:00,
2013-06-11 14:43:00,76.7,67.0,29.55,SW,221,4.0,8.0,72,0.00,,---,0.07,VWS V14.00,2013-06-11 18:43:00,
2013-06-11 14:48:00,76.5,67.2,29.55,SW,229,4.0,9.0,73,0.00,,---,0.07,VWS V14.00,2013-06-11 18:48:00,
2013-06-11 14:53:00,76.6,67.3,29.54,West,276,8.0,13.0,73,0.00,,---,0.07,VWS V14.00,2013-06-11 18:53:00,
2013-06-11 14:58:00,76.8,66.7,29.55,SW,233,11.0,11.0,71,0.00,,---,0.07,VWS V14.00,2013-06-11 18:58:00,
2013-06-11 15:03:00,76.1,67.2,29.54,SSW,205,6.0,11.0,74,0.04,,---,0.11,VWS V14.00,2013-06-11 19:03:00,
2013-06-11 15:08:00,75.2,67.9,29.54,SW,219,0.0,0.0,78,0.04,,---,0.11,VWS V14.00,2013-06-11 19:08:00,
2013-06-11 15:13:00,75.5,68.5,29.54,SW,233,2.0,7.0,79,0.04,,---,0.11,VWS V14.00,2013-06-11 19:13:00,
2013-06-11 15:18:00,76.0,67.9,29.54,WNW,289,6.0,6.0,76,0.05,,---,0.12,VWS V14.00,2013-06-11 19:18:00,
2013-06-11 15:23:00,76.4,67.5,29.54,NW,310,3.0,4.0,74,0.05,,---,0.12,VWS V14.00,2013-06-11 19:23:00,
2013-06-11 15:28:00,76.6,68.1,29.54,West,271,3.0,4.0,75,0.05,,---,0.12,VWS V14.00,2013-06-11 19:28:00,
2013-06-11 15:33:00,76.4,67.5,29.54,NNW,330,4.0,7.0,74,0.05,,---,0.12,VWS V14.00,2013-06-11 19:33:00,
2013-06-11 15:38:00,76.4,67.1,29.54,WSW,244,5.0,5.0,73,0.05,,---,0.12,VWS V14.00,2013-06-11 19:38:00,
2013-06-11 15:43:00,76.7,68.2,29.53,SW,219,2.0,2.0,75,0.05,,---,0.12,VWS V14.00,2013-06-11 19:43:00,
2013-06-11 15:48:00,77.2,68.3,29.53,NW,306,1.0,1.0,74,0.05,,---,0.12,VWS V14.00,2013-06-11 19:48:00,
2013-06-11 15:53:00,77.6,68.3,29.53,NW,309,8.0,10.0,73,0.05,,---,0.12,VWS V14.00,2013-06-11 19:53:00,
2013-06-11 15:59:00,78.0,67.4,29.53,West,264,4.0,12.0,70,0.05,,---,0.12,VWS V14.00,2013-06-11 19:59:00,
2013-06-11 16:04:00,78.3,66.4,29.53,West,266,11.0,17.0,67,0.01,,---,0.12,VWS V14.00,2013-06-11 20:04:00,
2013-06-11 16:09:00,78.4,67.4,29.53,NW,304,7.0,10.0,69,0.01,,---,0.12,VWS V14.00,2013-06-11 20:09:00,
2013-06-11 16:14:00,78.2,66.8,29.53,WSW,255,5.0,14.0,68,0.01,,---,0.12,VWS V14.00,2013-06-11 20:14:00,
2013-06-11 16:19:00,78.3,66.9,29.53,WNW,295,8.0,17.0,68,0.00,,---,0.12,VWS V14.00,2013-06-11 20:19:00,
2013-06-11 16:24:00,78.7,67.7,29.53,WNW,298,5.0,12.0,69,0.00,,---,0.12,VWS V14.00,2013-06-11 20:24:00,
2013-06-11 16:29:00,79.0,68.0,29.53,WNW,290,2.0,5.0,69,0.00,,---,0.12,VWS V14.00,2013-06-11 20:29:00,
2013-06-11 16:35:00,79.2,67.3,29.53,SW,229,10.0,10.0,67,0.00,,---,0.12,VWS V14.00,2013-06-11 20:35:00,
2013-06-11 16:40:00,79.4,67.1,29.52,West,260,7.0,8.0,66,0.00,,---,0.12,VWS V14.00,2013-06-11 20:40:00,
2013-06-11 16:45:00,79.2,66.9,29.52,NW,311,10.0,13.0,66,0.00,,---,0.12,VWS V14.00,2013-06-11 20:45:00,
2013-06-11 16:50:00,79.6,67.2,29.52,West,274,1.0,10.0,66,0.00,,---,0.12,VWS V14.00,2013-06-11 20:50:00,
2013-06-11 16:55:00,79.8,67.0,29.52,West,273,6.0,15.0,65,0.00,,---,0.12,VWS V14.00,2013-06-11 20:55:00,
2013-06-11 17:00:00,79.7,67.3,29.52,SSW,212,2.0,7.0,66,0.00,,---,0.12,VWS V14.00,2013-06-11 21:00:00,
2013-06-11 17:05:00,80.5,67.7,29.52,WNW,302,8.0,8.0,65,0.00,,---,0.12,VWS V14.00,2013-06-11 21:05:00,
2013-06-11 17:10:00,80.8,67.5,29.52,West,276,5.0,6.0,64,0.00,,---,0.12,VWS V14.00,2013-06-11 21:10:00,
2013-06-11 17:15:00,80.4,66.7,29.52,West,260,6.0,11.0,63,0.00,,---,0.12,VWS V14.00,2013-06-11 21:15:00,
2013-06-11 17:20:00,80.3,66.6,29.52,NW,316,7.0,13.0,63,0.00,,---,0.12,VWS V14.00,2013-06-11 21:20:00,
2013-06-11 17:25:00,80.0,66.3,29.52,West,281,7.0,11.0,63,0.00,,---,0.12,VWS V14.00,2013-06-11 21:25:00,
2013-06-11 17:30:00,80.3,67.0,29.51,NW,315,3.0,12.0,64,0.00,,---,0.12,VWS V14.00,2013-06-11 21:30:00,
2013-06-11 17:35:00,80.5,67.2,29.51,WNW,288,8.0,13.0,64,0.00,,---,0.12,VWS V14.00,2013-06-11 21:35:00,
2013-06-11 17:40:00,80.7,67.4,29.51,WNW,288,2.0,8.0,64,0.00,,---,0.12,VWS V14.00,2013-06-11 21:40:00,
2013-06-11 17:45:00,80.4,66.2,29.51,SW,232,4.0,13.0,62,0.00,,---,0.12,VWS V14.00,2013-06-11 21:45:00,
2013-06-11 17:50:00,80.0,65.8,29.51,West,259,16.0,17.0,62,0.00,,---,0.12,VWS V14.00,2013-06-11 21:50:00,
2013-06-11 17:55:00,80.0,65.8,29.51,WNW,295,6.0,21.0,62,0.00,,---,0.12,VWS V14.00,2013-06-11 21:55:00,
2013-06-11 18:00:00,79.1,66.3,29.52,North,3,10.0,20.0,65,0.00,,---,0.12,VWS V14.00,2013-06-11 22:00:00,
2013-06-11 18:05:00,76.3,65.8,29.52,WNW,297,23.0,23.0,70,0.00,,---,0.12,VWS V14.00,2013-06-11 22:05:00,
2013-06-11 18:11:00,75.4,65.8,29.53,West,276,9.0,16.0,72,0.00,,---,0.12,VWS V14.00,2013-06-11 22:11:00,
2013-06-11 18:16:00,73.7,65.3,29.53,WNW,287,3.0,14.0,75,0.00,,---,0.12,VWS V14.00,2013-06-11 22:16:00,
2013-06-11 18:21:00,72.4,65.2,29.54,WNW,286,3.0,18.0,78,0.01,,---,0.13,VWS V14.00,2013-06-11 22:21:00,
2013-06-11 18:26:00,70.9,65.1,29.53,NNW,332,12.0,14.0,82,0.02,,---,0.14,VWS V14.00,2013-06-11 22:26:00,
2013-06-11 18:31:00,70.6,65.2,29.53,WNW,296,8.0,16.0,83,0.02,,---,0.14,VWS V14.00,2013-06-11 22:31:00,
2013-06-11 18:36:00,70.8,65.0,29.53,NNW,341,6.0,9.0,82,0.02,,---,0.14,VWS V14.00,2013-06-11 22:36:00,
2013-06-11 18:41:00,71.1,65.7,29.53,West,277,3.0,7.0,83,0.02,,---,0.14,VWS V14.00,2013-06-11 22:41:00,
2013-06-11 18:46:00,71.9,66.1,29.54,WSW,248,0.0,9.0,82,0.02,,---,0.14,VWS V14.00,2013-06-11 22:46:00,
2013-06-11 18:52:00,72.7,65.8,29.54,WNW,288,4.0,10.0,79,0.02,,---,0.14,VWS V14.00,2013-06-11 22:52:00,
2013-06-11 18:57:00,73.3,66.8,29.54,NW,311,1.0,9.0,80,0.02,,---,0.14,VWS V14.00,2013-06-11 22:57:00,
2013-06-11 19:02:00,73.9,67.0,29.54,WSW,241,2.0,8.0,79,0.02,,---,0.14,VWS V14.00,2013-06-11 23:02:00,
2013-06-11 19:07:00,74.3,66.6,29.54,West,277,4.0,7.0,77,0.02,,---,0.14,VWS V14.00,2013-06-11 23:07:00,
2013-06-11 19:12:00,74.6,66.9,29.54,NW,308,6.0,6.0,77,0.02,,---,0.14,VWS V14.00,2013-06-11 23:12:00,
2013-06-11 19:17:00,74.8,67.1,29.54,WNW,286,3.0,8.0,77,0.02,,---,0.14,VWS V14.00,2013-06-11 23:17:00,
2013-06-11 19:22:00,74.9,67.2,29.54,WNW,303,0.0,9.0,77,0.02,,---,0.14,VWS V14.00,2013-06-11 23:22:00,
2013-06-11 19:27:00,74.9,66.4,29.55,SW,228,4.0,12.0,75,0.00,,---,0.14,VWS V14.00,2013-06-11 23:27:00,
2013-06-11 19:32:00,74.6,66.5,29.55,WNW,302,3.0,8.0,76,0.00,,---,0.14,VWS V14.00,2013-06-11 23:32:00,
2013-06-11 19:37:00,74.0,66.3,29.55,NW,311,4.0,8.0,77,0.00,,---,0.14,VWS V14.00,2013-06-11 23:37:00,
2013-06-11 19:42:00,73.7,66.1,29.55,NW,313,3.0,10.0,77,0.00,,---,0.14,VWS V14.00,2013-06-11 23:42:00,
2013-06-11 19:47:00,73.7,66.1,29.55,NNW,337,3.0,8.0,77,0.00,,---,0.14,VWS V14.00,2013-06-11 23:47:00,
2013-06-11 19:52:00,73.8,65.8,29.55,NNW,333,4.0,9.0,76,0.00,,---,0.14,VWS V14.00,2013-06-11 23:52:00,
2013-06-11 19:57:00,73.8,65.8,29.55,NW,311,6.0,9.0,76,0.00,,---,0.14,VWS V14.00,2013-06-11 23:57:00,
2013-06-11 20:03:00,73.8,65.8,29.55,NW,324,2.0,6.0,76,0.00,,---,0.14,VWS V14.00,2013-06-12 00:03:00,
2013-06-11 20:08:00,73.7,65.7,29.55,NW,315,0.0,4.0,76,0.00,,---,0.14,VWS V14.00,2013-06-12 00:08:00,
2013-06-11 20:13:00,73.6,65.9,29.56,West,281,0.0,2.0,77,0.00,,---,0.14,VWS V14.00,2013-06-12 00:13:00,
2013-06-11 20:18:00,73.4,65.8,29.56,SW,232,0.0,5.0,77,0.00,,---,0.14,VWS V14.00,2013-06-12 00:18:00,
2013-06-11 20:23:00,73.2,65.2,29.56,WSW,239,2.0,4.0,76,0.00,,---,0.14,VWS V14.00,2013-06-12 00:23:00,
2013-06-11 20:28:00,73.1,65.1,29.56,NW,326,2.0,7.0,76,0.00,,---,0.14,VWS V14.00,2013-06-12 00:28:00,
2013-06-11 20:33:00,72.9,64.5,29.57,NNW,335,2.0,10.0,75,0.00,,---,0.14,VWS V14.00,2013-06-12 00:33:00,
2013-06-11 20:38:00,72.7,64.3,29.57,WNW,295,6.0,8.0,75,0.00,,---,0.14,VWS V14.00,2013-06-12 00:38:00,
2013-06-11 20:43:00,72.6,63.8,29.57,NW,309,2.0,7.0,74,0.00,,---,0.14,VWS V14.00,2013-06-12 00:43:00,
2013-06-11 20:48:00,72.5,63.8,29.57,West,262,4.0,8.0,74,0.00,,---,0.14,VWS V14.00,2013-06-12 00:48:00,
2013-06-11 20:53:00,72.4,63.7,29.57,NW,311,3.0,8.0,74,0.00,,---,0.14,VWS V14.00,2013-06-12 00:53:00,
2013-06-11 20:58:00,72.2,63.8,29.57,NNW,336,1.0,5.0,75,0.00,,---,0.14,VWS V14.00,2013-06-12 00:58:00,
2013-06-11 21:03:00,72.0,63.7,29.57,West,269,2.0,6.0,75,0.00,,---,0.14,VWS V14.00,2013-06-12 01:03:00,
2013-06-11 21:08:00,72.0,63.3,29.58,WNW,290,0.0,7.0,74,0.00,,---,0.14,VWS V14.00,2013-06-12 01:08:00,
2013-06-11 21:13:00,71.9,63.2,29.58,NW,314,3.0,8.0,74,0.00,,---,0.14,VWS V14.00,2013-06-12 01:13:00,
2013-06-11 21:18:00,71.8,63.1,29.58,WNW,301,1.0,7.0,74,0.00,,---,0.14,VWS V14.00,2013-06-12 01:18:00,
2013-06-11 21:23:00,71.8,63.1,29.59,NW,310,1.0,10.0,74,0.00,,---,0.14,VWS V14.00,2013-06-12 01:23:00,
2013-06-11 21:28:00,71.6,62.9,29.59,WSW,248,2.0,7.0,74,0.00,,---,0.14,VWS V14.00,2013-06-12 01:28:00,
2013-06-11 21:33:00,71.5,62.8,29.59,WNW,295,3.0,5.0,74,0.00,,---,0.14,VWS V14.00,2013-06-12 01:33:00,
2013-06-11 21:38:00,71.5,62.8,29.59,NW,315,2.0,6.0,74,0.00,,---,0.14,VWS V14.00,2013-06-12 01:38:00,
2013-06-11 21:43:00,71.4,62.7,29.60,WNW,298,0.0,9.0,74,0.00,,---,0.14,VWS V14.00,2013-06-12 01:43:00,
2013-06-11 21:48:00,71.4,62.3,29.60,NW,309,1.0,13.0,73,0.00,,---,0.14,VWS V14.00,2013-06-12 01:48:00,
2013-06-11 21:53:00,71.3,62.2,29.60,WNW,301,3.0,5.0,73,0.00,,---,0.14,VWS V14.00,2013-06-12 01:53:00,
2013-06-11 21:58:00,71.3,62.2,29.60,NNW,329,1.0,10.0,73,0.00,,---,0.14,VWS V14.00,2013-06-12 01:58:00,
2013-06-11 22:03:00,71.1,62.0,29.60,WNW,283,2.0,6.0,73,0.00,,---,0.14,VWS V14.00,2013-06-12 02:03:00,
2013-06-11 22:08:00,70.9,62.2,29.60,NNW,327,2.0,5.0,74,0.00,,---,0.14,VWS V14.00,2013-06-12 02:08:00,
2013-06-11 22:13:00,70.8,61.7,29.61,NW,321,3.0,8.0,73,0.00,,---,0.14,VWS V14.00,2013-06-12 02:13:00,
2013-06-11 22:18:00,70.8,62.1,29.61,NW,317,1.0,8.0,74,0.00,,---,0.14,VWS V14.00,2013-06-12 02:18:00,
2013-06-11 22:23:00,70.6,61.9,29.61,NW,316,1.0,6.0,74,0.00,,---,0.14,VWS V14.00,2013-06-12 02:23:00,
2013-06-11 22:28:00,70.7,61.6,29.61,WNW,283,6.0,10.0,73,0.00,,---,0.14,VWS V14.00,2013-06-12 02:28:00,
2013-06-11 22:33:00,70.7,61.6,29.61,WSW,243,1.0,7.0,73,0.00,,---,0.14,VWS V14.00,2013-06-12 02:33:00,
2013-06-11 22:38:00,70.6,61.5,29.61,WNW,298,3.0,8.0,73,0.00,,---,0.14,VWS V14.00,2013-06-12 02:38:00,
2013-06-11 22:43:00,70.6,61.5,29.61,NW,305,2.0,6.0,73,0.00,,---,0.14,VWS V14.00,2013-06-12 02:43:00,
2013-06-11 22:48:00,70.5,61.4,29.61,NNW,333,2.0,5.0,73,0.00,,---,0.14,VWS V14.00,2013-06-12 02:48:00,
2013-06-11 22:53:00,70.3,61.2,29.61,NW,322,1.0,5.0,73,0.00,,---,0.14,VWS V14.00,2013-06-12 02:53:00,
2013-06-11 22:58:00,70.1,61.4,29.62,WNW,293,2.0,5.0,74,0.00,,---,0.14,VWS V14.00,2013-06-12 02:58:00,
2013-06-11 23:03:00,69.9,61.2,29.61,West,278,0.0,4.0,74,0.00,,---,0.14,VWS V14.00,2013-06-12 03:03:00,
2013-06-11 23:08:00,69.6,61.3,29.62,WSW,250,0.0,1.0,75,0.00,,---,0.14,VWS V14.00,2013-06-12 03:08:00,
2013-06-11 23:13:00,69.4,61.1,29.62,WNW,287,0.0,2.0,75,0.00,,---,0.14,VWS V14.00,2013-06-12 03:13:00,
2013-06-11 23:18:00,69.3,61.0,29.61,WNW,290,1.0,1.0,75,0.00,,---,0.14,VWS V14.00,2013-06-12 03:18:00,
2013-06-11 23:23:00,69.2,61.3,29.62,West,265,0.0,3.0,76,0.00,,---,0.14,VWS V14.00,2013-06-12 03:23:00,
2013-06-11 23:28:00,69.1,60.8,29.62,West,271,0.0,2.0,75,0.00,,---,0.14,VWS V14.00,2013-06-12 03:28:00,
2013-06-11 23:33:00,68.9,61.0,29.62,West,279,0.0,2.0,76,0.00,,---,0.14,VWS V14.00,2013-06-12 03:33:00,
2013-06-11 23:38:00,68.9,61.0,29.62,WNW,284,0.0,2.0,76,0.00,,---,0.14,VWS V14.00,2013-06-12 03:38:00,
2013-06-11 23:43:00,68.9,61.0,29.62,WNW,293,1.0,3.0,76,0.00,,---,0.14,VWS V14.00,2013-06-12 03:43:00,
2013-06-11 23:48:00,68.9,61.0,29.62,WNW,291,0.0,1.0,76,0.00,,---,0.14,VWS V14.00,2013-06-12 03:48:00,
2013-06-11 23:53:00,68.9,61.0,29.62,NW,315,5.0,6.0,76,0.00,,---,0.14,VWS V14.00,2013-06-12 03:53:00,
2013-06-11 23:59:00,69.3,60.3,29.62,West,277,10.0,10.0,73,0.00,,---,0.14,VWS V14.00,2013-06-12 03:59:00,